This demonstration page uses our WeatherBlox Daily Observations layout. Learn more.

36.17497, -115.13722

Hourly Observations for June 5, 2016

Temp ( °F °C ) Dew Point ( °F °C ) Humidity (%) Winds ( mph kmh ) Pressure ( in mb ) Visibility ( mi km ) Precip ( " mm )
12:53 am 00:53 Clear 89 31.7 28 -2.2 11 11 SW 3 6 29.76 1008 10 16.0934 0 0
1:53 am 01:53 Clear 85 29.4 27 -2.8 12 12 Calm 29.76 1008 10 16.0934 0 0
2:53 am 02:53 Clear 81 27.2 32 0 17 17 NNW 3 6 29.76 1008 10 16.0934 0 0
3:53 am 03:53 Clear 79 26.1 34 1.1 20 20 NNE 3 6 29.76 1008 10 16.0934 0 0
4:53 am 04:53 Clear 78 25.6 32 0 19 19 N 5 7 29.77 1008 10 16.0934 0 0
5:53 am 05:53 Sunny 78 25.6 29 -1.7 16 16 WNW 5 7 29.78 1008 10 16.0934 0 0
6:53 am 06:53 Sunny 81 27.2 31 -0.6 16 16 NNW 7 11 29.79 1009 10 16.0934 0 0
7:53 am 07:53 Sunny 86 30 30 -1.1 13 13 Calm 29.8 1009 10 16.0934 0 0
8:53 am 08:53 Sunny 89 31.7 30 -1.1 12 12 Calm 29.8 1009 10 16.0934 0 0
9:53 am 09:53 Sunny 94 34.4 30 -1.1 10 10 SE 7 11 29.79 1009 10 16.0934 0 0
10:53 am 10:53 Sunny 98 36.7 29 -1.7 9 9 SE 10 17 29.78 1008 10 16.0934 0 0
11:53 am 11:53 Sunny 101 38.3 26 -3.3 7 7 SE 14 22 29.75 1008 10 16.0934 0 0
12:53 pm 12:53 Sunny 104 40 24 -4.4 6 6 S 15 24 29.72 1006 10 16.0934 0 0
1:53 pm 13:53 Sunny 107 41.7 24 -4.4 5 5 SW 10 17 29.69 1005 10 16.0934 0 0
2:53 pm 14:53 Sunny 107 41.7 22 -5.6 5 5 W 12 19 29.66 1005 10 16.0934 0 0
3:16 pm 15:16 Sunny 108 42 21 -6 5 5 SW 13 20 29.47 998 10 16.0934 0 0
3:53 pm 15:53 Sunny 107 41.7 20 -6.7 4 4 WSW 14 22 29.64 1004 10 16.0934 0 0
4:53 pm 16:53 Sunny 107 41.7 20 -6.7 4 4 SW 17 28 29.62 1003 10 16.0934 0 0
5:53 pm 17:53 Sunny 106 41.1 17 -8.3 4 4 W 16 26 29.61 1003 10 16.0934 0 0
6:53 pm 18:53 Sunny 103 39.4 15 -9.4 4 4 W 13 20 29.61 1003 10 16.0934 0 0
7:53 pm 19:53 Sunny 100 37.8 21 -6.1 6 6 W 12 19 29.62 1003 10 16.0934 0 0
8:53 pm 20:53 Clear 97 36.1 23 -5 7 7 W 7 11 29.63 1003 10 16.0934 0 0
9:53 pm 21:53 Clear 96 35.6 21 -6.1 6 6 W 6 9 29.64 1004 10 16.0934 0 0
10:53 pm 22:53 Clear 93 33.9 23 -5 8 8 W 8 13 29.64 1004 10 16.0934 0 0
11:53 pm 23:53 Clear 91 32.8 26 -3.3 9 9 WSW 7 11 29.64 1004 10 16.0934 0 0

Powered by AerisWeather